This is the latest recevied weather packets stored in our database for station/object PY2UEP-1. If no packets are shown the sender has not sent any weather packets the latest 10 day(s).
| Time | Temp. | Humidity | Pressure | Rain* | Wind** | Luminosity | Snow |
|---|---|---|---|---|---|---|---|
| 1788002403 | 24.44° C | 64% | 1015.5 hPa | 0 mm | - | - | - |
| 1788002103 | 23.89° C | 66% | 1015.3 hPa | 0 mm | - | - | - |
| 1788001803 | 23.89° C | 67% | 1015.2 hPa | 0 mm | - | - | - |
| 1788001503 | 23.33° C | 69% | 1015.1 hPa | 0 mm | - | - | - |
| 1788001203 | 22.22° C | 72% | 1015 hPa | 0 mm | - | - | - |
| 1788000903 | 21.67° C | 76% | 1015 hPa | 0 mm | - | - | - |
| 1788000603 | 21.11° C | 77% | 1015 hPa | 0 mm | - | - | - |
| 1788000303 | 21.11° C | 77% | 1015.1 hPa | 0 mm | - | - | - |
| 1788000003 | 21.11° C | 77% | 1015 hPa | 0 mm | - | - | - |
| 1787999703 | 21.11° C | 76% | 1015.1 hPa | 0 mm | - | - | - |
| 1787999403 | 20.56° C | 78% | 1015.1 hPa | 0 mm | - | - | - |
| 1787999103 | 20.56° C | 79% | 1015 hPa | 0 mm | - | - | - |
| 1787998803 | 20.56° C | 79% | 1014.8 hPa | 0 mm | - | - | - |
| 1787998503 | 20.56° C | 79% | 1014.8 hPa | 0 mm | - | - | - |
| 1787998203 | 20.56° C | 79% | 1014.7 hPa | 0 mm | - | - | - |
| 1787997903 | 20.56° C | 79% | 1015 hPa | 0 mm | - | - | - |
| 1787997603 | 20.56° C | 78% | 1014.8 hPa | 0 mm | - | - | - |
| 1787997303 | 20.56° C | 80% | 1014.6 hPa | 0 mm | - | - | - |
| 1787997003 | 20.56° C | 81% | 1014.2 hPa | 0 mm | - | - | - |
| 1787996703 | 20.56° C | 80% | 1014.2 hPa | 0 mm | - | - | - |
| 1787996403 | 20.56° C | 79% | 1014.2 hPa | 0 mm | - | - | - |
| 1787996103 | 20.56° C | 79% | 1014.2 hPa | 0 mm | - | - | - |
| 1787995803 | 20.56° C | 79% | 1014 hPa | 0 mm | - | - | - |
| 1787995503 | 20.56° C | 79% | 1013.8 hPa | 0 mm | - | - | - |
| 1787995203 | 20.56° C | 79% | 1013.7 hPa | 0 mm | - | - | - |
* Rain since midnight (hover to see other rain measurements)
** Current wind speed in m/s (hover to see current wind gust speed)